User: anonymous   Login
Location: Unspecified
(0.0000°N, 0.0000°E)
Time: 17:40:04
(UTC+00:00)
Language:

DMSP B5D2-1 - Orbit

View from above orbital plane
View from above orbital plane
View from above satellite
View from above satellite

Ground track
Ground track

The orbit data is extracted from the following two-line orbital elements,

1 13736U 82118A   18200.16673268 -.00000011  00000-0  12694-4 0  9999
2 13736  98.5799  26.7064 0007861 162.7291 197.4160 14.29275285852316
Epoch (UTC): 19 July 2018 04:00:05
Eccentricity: 0.0007861
inclination: 98.5799°
perigee height: 788 km
apogee height: 800 km
right ascension of ascending node: 26.7064°
argument of perigee: 162.7291°
revolutions per day: 14.29275285
mean anomaly at epoch: 197.4160°
orbit number at epoch: 85231

The dashed part of the orbit path shows where the satellite is in the earth's shadow,  

DLR